Voltar ao catálogo

ATLAS H R/B

AtivoLEO
NORAD 17998·ROCKET BODY·🇺🇸 United States

Lançado May 15, 1987 de Vandenberg Space Force Base

Loading…

Próximas Passagens (próximas 24 horas)

TLE

AtualizadoSource: Space-Track

Época: Sep 14, 2026, 05:48 UTC

1 17998U 87043B   26257.24222853  .00000768  00000-0  28086-3 0  9994
2 17998  63.3224 358.0395 0697990 118.6718 248.6305 13.51556004363292

Acompanhe ATLAS H R/B em tempo real com AllMySat

Download on the App Store